Regional Weather Roundup
Issued by NWS

Home | Current Version | Previous Version | Text Only | Print | Product List | Glossary On
Versions: 1 2 3 4 5 6 7 8 9 10 11 12 13 14 15 16 17 18 19 20 21 22 23 24 25 26 27 28 29 30 31 32 33 34 35 36 37 38 39 40 41 42 43 44 45 46 47 48 49 50
000
ASUS46 KPQR 011610
RWROR

OREGON REGIONAL WEATHER ROUNDUP
NATIONAL WEATHER SERVICE PORTLAND OR
900 AM PDT WED JUL 01 2015

NOTE: "FAIR" INDICATES FEW OR NO CLOUDS BELOW 12,000 FEET WITH
NO SIGNIFICANT WEATHER AND/OR OBSTRUCTIONS TO VISIBILITY.

ORZ001>013-011700-
NORTHWEST OREGON


CITY           SKY/WX    TMP DP  RH WIND       PRES   REMARKS
ASTORIA        CLOUDY    61  57  87 CALM      30.04F
NEWPORT        SUNNY     57  54  88 N12       30.04S FOG
PORTLAND       SUNNY     69  56  62 W7        30.01F
VANCOUVER WA   SUNNY     69  53  56 NW8       30.00F
SCAPPOOSE      SUNNY     71  53  52 N13       30.00F
HILLSBORO      SUNNY     71  51  49 CALM      30.00F
AURORA         SUNNY     71  53  52 NE8       30.00F
MCMINNVILLE    SUNNY     72  52  49 NE5       30.00F
SALEM          SUNNY     73  51  46 N7        29.98F
CORVALLIS      SUNNY     75  48  38 N7        30.00S
EUGENE         SUNNY     74  50  42 N15       29.99S
$$

ORZ021-028-011700-
SOUTHWEST OREGON


CITY           SKY/WX    TMP DP  RH WIND       PRES   REMARKS
NORTH BEND     CLOUDY    55  55 100 N9        30.00S
BROOKINGS      SUNNY     60  60 100 CALM      29.87S
ROSEBURG       SUNNY     75  55  49 N8        29.96F
SEXTON SUMMIT  SUNNY     75  55  49 CALM      30.08S
MEDFORD        SUNNY     77  55  46 CALM      29.96S
$$

ORZ014>016-041-011700-
COLUMBIA GORGE


CITY           SKY/WX    TMP DP  RH WIND       PRES   REMARKS
TROUTDALE      SUNNY     69  55  60 VRB3      29.99F
THE DALLES     SUNNY     78  58  49 N9        29.96F
$$

ORZ029>031-041-044-049-050-061>064-502-503-505>511-011700-
EASTERN OREGON


CITY           SKY/WX    TMP DP  RH WIND       PRES   REMARKS
REDMOND        SUNNY     76  48  37 CALM      30.09S
BEND             N/A    N/A N/A N/A MISG        N/A
PRINEVILLE     SUNNY     75  48  38 CALM      30.09
KLAMATH FALLS  SUNNY     77  52  41 NW5       30.11S
LAKEVIEW       SUNNY     81  45  28 NE6       30.15S
HERMISTON      SUNNY     83  56  39 CALM      29.97S
PENDLETON      SUNNY     79  51  37 CALM      30.01S
JOHN DAY       SUNNY     76  49  38 CALM      30.13S
MEACHAM        SUNNY     75  52  44 W3        30.12F
LA GRANDE      SUNNY     73  48  40 CALM      30.07F
BAKER CITY     SUNNY     76  52  43 NW5       30.10S
BURNS          SUNNY     81  45  28 E5        30.14S
ROME             N/A     84  45  25 VRB7      30.11R
ONTARIO        SUNNY     86  49  27 VRB3      30.01S
$$


USA.gov is the U.S. government's official web portal to all federal, state and local government web resources and services.